Home > Weather > Kano > Past weeks

Flag for Nigeria Weather for the Past 2 Weeks in Kano, Nigeria

Now
77 °F

Thunderstorms. Partly cloudy.


Feels Like: 78 °F
Forecast: 78 / 108 °F
Wind: 2 mph from East

Location: Douala Obs.

Current Time: May 4, 2016 at 7:29:04 AM

Latest Report: May 4, 2016 at 6:00 AM


Visibility: N/A

Pressure: 29.83 "Hg

Humidity: 100%

Dew Point: 77 °F

Location of KanoLocation

Historic Weather in Kano — Graph

°F

Kano Temperature Yesterday

Maximum temperature yesterday: 91 °F (at 4:00 PM)
Minimum temperature yesterday: 75 °F (at 1:00 AM)
Average temperature yesterday: 82 °F

High & Low Weather Summary for the Past Weeks

 TemperatureHumidityPressure
High93 °F (Apr 19, 3:00 PM)100% (Apr 20, 2:00 AM)29.92 "Hg (Apr 20, 2:00 AM)
Low73 °F (Apr 20, 5:00 PM)56% (Apr 28, 4:00 PM)29.68 "Hg (Apr 28, 5:00 PM)
Average83 °F85%29.80 "Hg
* Reported Apr 19 6:00 AM — May 4 6:00 AM, Kano, Weather by CustomWeather, © 2016

Note: Actual official high and low records may vary slightly from our data, if they occured in-between our weather recording intervals... More about our weather records

Advertising

Kano Weather History for the Previous 24 Hours

Scroll right to see more
 ConditionsComfort  
Time TempWeatherWind HumidityBarometerVisibility
6:00 AM
Wed, May 4
77 °FThunderstorms. Partly cloudy.2 mph100%29.83 "HgN/A
5:00 AM77 °FThunderstorms. Passing clouds.2 mph94%29.80 "HgN/A
3:00 AM77 °FThunderstorms. Partly cloudy.1 mph89%29.86 "HgN/A
2:00 AM77 °FThunderstorms. Partly cloudy.No wind89%29.86 "HgN/A
1:00 AM81 °FThunderstorms. Partly cloudy.5 mph94%29.89 "HgN/A
12:00 AM82 °FThunderstorms. Partly cloudy.5 mph89%29.89 "HgN/A
11:00 PM
Tue, May 3
82 °FThunderstorms. Partly cloudy.2 mph89%29.89 "HgN/A
10:00 PM82 °FThunderstorms. Passing clouds.No wind89%29.86 "HgN/A
9:00 PM84 °FThunderstorms. Passing clouds.2 mph79%29.83 "HgN/A
8:00 PM84 °FThunderstorms. Passing clouds.5 mph79%29.80 "HgN/A
7:00 PM84 °FPassing clouds.6 mph74%29.77 "HgN/A
6:00 PM90 °FPassing clouds.8 mph63%29.74 "HgN/A
5:00 PM90 °FScattered clouds.8 mph63%29.71 "HgN/A
4:00 PM91 °FScattered clouds.7 mph59%29.74 "HgN/A
3:00 PM90 °FScattered clouds.5 mph71%29.77 "HgN/A
2:00 PM90 °FPartly sunny.6 mph67%29.83 "HgN/A
1:00 PM90 °FPartly sunny.5 mph67%29.86 "HgN/A
12:00 PM90 °FPartly sunny.7 mph67%29.89 "HgN/A
11:00 AM88 °FPartly sunny.3 mph70%29.89 "HgN/A
10:00 AM84 °FPartly sunny.3 mph74%29.89 "HgN/A
9:00 AM81 °FBroken clouds.1 mph89%29.89 "HgN/A
8:00 AM77 °FBroken clouds.No wind94%29.89 "Hg5 mi
7:00 AM75 °FFog.1 mph100%29.83 "Hg2 mi
Weather by CustomWeather, © 2016

See weather overviewHow to use our weather pages